Time,TemperatureF,DewpointF,PressureIn,WindDirection,WindDirectionDegrees,WindSpeedMPH,WindSpeedGustMPH,Humidity,HourlyPrecipIn,Conditions,Clouds,dailyrainin,SoftwareType,DateUTC
2013-05-13 00:01:00,53.9,44.3,30.19,NE,42,0.0,0.0,70,0.00,,---,0.00,VWS V14.00,2013-05-13 04:01:00,
2013-05-13 00:02:00,53.7,44.1,30.19,NE,42,0.0,0.0,70,0.00,,---,0.00,VWS V14.00,2013-05-13 04:02:00,
2013-05-13 00:03:00,53.7,44.1,30.19,ENE,76,0.0,0.0,70,0.00,,---,0.00,VWS V14.00,2013-05-13 04:03:00,
2013-05-13 00:04:00,53.7,44.1,30.19,ENE,76,0.0,0.0,70,0.00,,---,0.00,VWS V14.00,2013-05-13 04:04:00,
2013-05-13 00:05:00,53.5,44.0,30.19,East,79,0.0,0.0,70,0.00,,---,0.00,VWS V14.00,2013-05-13 04:05:00,
2013-05-13 00:10:00,53.5,44.0,30.19,ENE,74,0.0,0.0,70,0.00,,---,0.00,VWS V14.00,2013-05-13 04:10:00,
2013-05-13 00:15:00,53.3,44.2,30.19,ENE,59,0.0,0.0,71,0.00,,---,0.00,VWS V14.00,2013-05-13 04:15:00,
2013-05-13 00:20:00,53.1,44.7,30.19,NE,48,0.0,0.0,73,0.00,,---,0.00,VWS V14.00,2013-05-13 04:20:00,
2013-05-13 00:25:00,53.0,44.9,30.19,NE,53,0.0,0.0,74,0.00,,---,0.00,VWS V14.00,2013-05-13 04:25:00,
2013-05-13 00:30:00,52.8,45.4,30.19,NE,53,0.0,0.0,76,0.00,,---,0.00,VWS V14.00,2013-05-13 04:30:00,
2013-05-13 00:35:00,52.4,45.8,30.19,SSW,199,0.0,0.0,78,0.00,,---,0.00,VWS V14.00,2013-05-13 04:35:00,
2013-05-13 00:40:00,52.4,46.1,30.19,SSW,209,0.0,0.0,79,0.00,,---,0.00,VWS V14.00,2013-05-13 04:40:00,
2013-05-13 00:45:00,52.4,46.1,30.19,SW,223,0.0,0.0,79,0.00,,---,0.00,VWS V14.00,2013-05-13 04:45:00,
2013-05-13 00:51:00,52.2,46.3,30.19,SW,223,0.0,0.0,80,0.00,,---,0.00,VWS V14.00,2013-05-13 04:51:00,
2013-05-13 00:56:00,52.1,46.4,30.19,South,190,0.0,0.0,81,0.00,,---,0.00,VWS V14.00,2013-05-13 04:56:00,
2013-05-13 01:01:00,51.9,46.6,30.19,SW,227,0.0,0.0,82,0.00,,---,0.00,VWS V14.00,2013-05-13 05:01:00,
2013-05-13 01:06:00,51.7,46.7,30.19,SW,227,0.0,0.0,83,0.00,,---,0.00,VWS V14.00,2013-05-13 05:06:00,
2013-05-13 01:11:00,51.3,46.7,30.19,SW,227,0.0,0.0,84,0.00,,---,0.00,VWS V14.00,2013-05-13 05:11:00,
2013-05-13 01:16:00,51.2,46.8,30.22,North,357,0.0,0.0,85,0.00,,---,0.00,VWS V14.00,2013-05-13 05:16:00,
2013-05-13 01:21:00,50.8,47.1,30.22,North,357,0.0,0.0,87,0.00,,---,0.00,VWS V14.00,2013-05-13 05:21:00,
2013-05-13 01:26:00,50.6,47.2,30.22,North,357,0.0,0.0,88,0.00,,---,0.00,VWS V14.00,2013-05-13 05:26:00,
2013-05-13 01:31:00,50.4,47.3,30.22,NNE,27,0.0,0.0,89,0.00,,---,0.00,VWS V14.00,2013-05-13 05:31:00,
2013-05-13 01:36:00,50.3,47.4,30.22,NNE,24,0.0,0.0,90,0.00,,---,0.00,VWS V14.00,2013-05-13 05:36:00,
2013-05-13 01:41:00,50.1,47.6,30.22,NNE,24,0.0,0.0,91,0.00,,---,0.00,VWS V14.00,2013-05-13 05:41:00,
2013-05-13 01:46:00,50.1,47.8,30.22,North,2,0.0,0.0,92,0.00,,---,0.00,VWS V14.00,2013-05-13 05:46:00,
2013-05-13 01:51:00,50.1,48.1,30.22,North,2,0.0,0.0,93,0.00,,---,0.00,VWS V14.00,2013-05-13 05:51:00,
2013-05-13 01:56:00,49.9,48.0,30.22,North,2,0.0,0.0,93,0.00,,---,0.00,VWS V14.00,2013-05-13 05:56:00,
2013-05-13 02:02:00,49.7,47.8,30.22,North,2,0.0,0.0,93,0.00,,---,0.00,VWS V14.00,2013-05-13 06:02:00,
2013-05-13 02:07:00,49.7,48.1,30.22,North,2,0.0,0.0,94,0.00,,---,0.00,VWS V14.00,2013-05-13 06:07:00,
2013-05-13 02:12:00,49.5,47.9,30.22,North,2,0.0,0.0,94,0.00,,---,0.00,VWS V14.00,2013-05-13 06:12:00,
2013-05-13 02:17:00,49.5,47.9,30.22,North,2,0.0,0.0,94,0.00,,---,0.00,VWS V14.00,2013-05-13 06:17:00,
2013-05-13 02:22:00,49.5,48.2,30.22,North,2,0.0,0.0,95,0.00,,---,0.00,VWS V14.00,2013-05-13 06:22:00,
2013-05-13 02:27:00,49.5,48.2,30.22,North,2,0.0,0.0,95,0.00,,---,0.00,VWS V14.00,2013-05-13 06:27:00,
2013-05-13 02:32:00,49.7,48.6,30.22,North,2,0.0,0.0,96,0.00,,---,0.00,VWS V14.00,2013-05-13 06:32:00,
2013-05-13 02:37:00,49.7,48.6,30.22,North,2,0.0,0.0,96,0.00,,---,0.00,VWS V14.00,2013-05-13 06:37:00,
2013-05-13 02:42:00,49.9,49.1,30.22,North,2,0.0,0.0,97,0.00,,---,0.00,VWS V14.00,2013-05-13 06:42:00,
2013-05-13 02:47:00,49.9,49.1,30.22,North,2,0.0,0.0,97,0.00,,---,0.00,VWS V14.00,2013-05-13 06:47:00,
2013-05-13 02:52:00,50.1,49.3,30.22,North,2,0.0,0.0,97,0.00,,---,0.00,VWS V14.00,2013-05-13 06:52:00,
2013-05-13 02:57:00,49.9,49.1,30.22,North,2,0.0,0.0,97,0.00,,---,0.00,VWS V14.00,2013-05-13 06:57:00,
2013-05-13 03:02:00,49.7,48.9,30.22,North,2,0.0,0.0,97,0.00,,---,0.00,VWS V14.00,2013-05-13 07:02:00,
2013-05-13 03:08:00,49.5,48.7,30.22,North,2,0.0,0.0,97,0.00,,---,0.00,VWS V14.00,2013-05-13 07:08:00,
2013-05-13 03:13:00,49.4,48.5,30.19,North,2,0.0,0.0,97,0.00,,---,0.00,VWS V14.00,2013-05-13 07:13:00,
2013-05-13 03:18:00,49.2,48.6,30.19,North,2,0.0,0.0,98,0.00,,---,0.00,VWS V14.00,2013-05-13 07:18:00,
2013-05-13 03:23:00,49.2,48.6,30.19,North,2,0.0,0.0,98,0.00,,---,0.00,VWS V14.00,2013-05-13 07:23:00,
2013-05-13 03:28:00,49.2,48.6,30.19,North,2,0.0,0.0,98,0.00,,---,0.00,VWS V14.00,2013-05-13 07:28:00,
2013-05-13 03:33:00,49.2,48.6,30.19,North,2,0.0,0.0,98,0.00,,---,0.00,VWS V14.00,2013-05-13 07:33:00,
2013-05-13 03:38:00,49.0,48.7,30.19,North,2,0.0,0.0,99,0.00,,---,0.00,VWS V14.00,2013-05-13 07:38:00,
2013-05-13 03:43:00,49.2,48.9,30.19,North,2,0.0,0.0,99,0.00,,---,0.00,VWS V14.00,2013-05-13 07:43:00,
2013-05-13 03:48:00,49.4,49.1,30.19,NNE,15,0.0,0.0,99,0.00,,---,0.00,VWS V14.00,2013-05-13 07:48:00,
2013-05-13 03:53:00,49.4,49.4,30.19,NNE,25,0.0,0.0,100,0.00,,---,0.00,VWS V14.00,2013-05-13 07:53:00,
2013-05-13 03:58:00,49.5,49.5,30.19,North,357,0.0,0.0,100,0.00,,---,0.00,VWS V14.00,2013-05-13 07:58:00,
2013-05-13 04:03:00,49.4,49.4,30.19,NNW,334,0.0,0.0,100,0.00,,---,0.00,VWS V14.00,2013-05-13 08:03:00,
2013-05-13 04:08:00,49.4,49.4,30.19,NNW,343,0.0,0.0,100,0.00,,---,0.00,VWS V14.00,2013-05-13 08:08:00,
2013-05-13 04:13:00,49.4,49.4,30.19,North,0,0.0,0.0,100,0.00,,---,0.00,VWS V14.00,2013-05-13 08:13:00,
2013-05-13 04:18:00,49.4,49.4,30.19,North,357,0.0,0.0,100,0.00,,---,0.00,VWS V14.00,2013-05-13 08:18:00,
2013-05-13 04:24:00,49.4,49.4,30.19,North,2,0.0,0.0,100,0.00,,---,0.00,VWS V14.00,2013-05-13 08:24:00,
2013-05-13 04:29:00,49.4,49.4,30.19,NNW,346,0.0,0.0,100,0.00,,---,0.00,VWS V14.00,2013-05-13 08:29:00,
2013-05-13 04:34:00,49.2,49.2,30.19,North,353,0.0,0.0,100,0.00,,---,0.00,VWS V14.00,2013-05-13 08:34:00,
2013-05-13 04:39:00,49.2,48.9,30.19,North,353,0.0,0.0,99,0.00,,---,0.00,VWS V14.00,2013-05-13 08:39:00,
2013-05-13 04:44:00,49.2,48.9,30.19,NNW,339,0.0,0.0,99,0.00,,---,0.00,VWS V14.00,2013-05-13 08:44:00,
2013-05-13 04:49:00,49.2,48.6,30.19,NNW,339,0.0,0.0,98,0.00,,---,0.00,VWS V14.00,2013-05-13 08:49:00,
2013-05-13 04:54:00,49.2,48.6,30.19,NNW,339,0.0,0.0,98,0.00,,---,0.00,VWS V14.00,2013-05-13 08:54:00,
2013-05-13 04:59:00,49.2,48.4,30.19,NE,40,0.0,0.0,97,0.00,,---,0.00,VWS V14.00,2013-05-13 08:59:00,
2013-05-13 05:04:00,49.4,48.3,30.19,North,7,0.0,0.0,96,0.00,,---,0.00,VWS V14.00,2013-05-13 09:04:00,
2013-05-13 05:09:00,49.5,48.5,30.19,North,2,0.0,0.0,96,0.00,,---,0.00,VWS V14.00,2013-05-13 09:09:00,
2013-05-13 05:14:00,49.5,48.5,30.19,North,357,0.0,0.0,96,0.00,,---,0.00,VWS V14.00,2013-05-13 09:14:00,
2013-05-13 05:19:00,49.7,48.6,30.19,North,357,0.0,0.0,96,0.00,,---,0.00,VWS V14.00,2013-05-13 09:19:00,
2013-05-13 05:25:00,49.7,48.3,30.19,North,357,0.0,0.0,95,0.00,,---,0.00,VWS V14.00,2013-05-13 09:25:00,
2013-05-13 05:30:00,49.7,48.3,30.19,North,357,0.0,0.0,95,0.00,,---,0.00,VWS V14.00,2013-05-13 09:30:00,
2013-05-13 05:35:00,49.7,48.3,30.19,North,357,0.0,0.0,95,0.00,,---,0.00,VWS V14.00,2013-05-13 09:35:00,
2013-05-13 05:40:00,49.7,48.1,30.19,North,357,0.0,0.0,94,0.00,,---,0.00,VWS V14.00,2013-05-13 09:40:00,
2013-05-13 05:45:00,49.7,48.1,30.19,North,357,0.0,0.0,94,0.00,,---,0.00,VWS V14.00,2013-05-13 09:45:00,
2013-05-13 05:50:00,49.5,47.6,30.19,North,0,0.0,0.0,93,0.00,,---,0.00,VWS V14.00,2013-05-13 09:50:00,
2013-05-13 05:55:00,49.4,47.1,30.19,NW,316,0.0,0.0,92,0.00,,---,0.00,VWS V14.00,2013-05-13 09:55:00,
2013-05-13 06:00:00,49.2,46.7,30.22,North,353,0.0,0.0,91,0.00,,---,0.00,VWS V14.00,2013-05-13 10:00:00,
2013-05-13 06:05:00,49.2,46.4,30.22,NNW,335,0.0,0.0,90,0.00,,---,0.00,VWS V14.00,2013-05-13 10:05:00,
2013-05-13 06:10:00,49.0,45.9,30.22,NNW,335,0.0,0.0,89,0.00,,---,0.00,VWS V14.00,2013-05-13 10:10:00,
2013-05-13 06:15:00,48.8,45.7,30.22,NNW,335,0.0,0.0,89,0.00,,---,0.00,VWS V14.00,2013-05-13 10:15:00,
2013-05-13 06:20:00,48.5,45.4,30.22,NNW,335,0.0,0.0,89,0.00,,---,0.00,VWS V14.00,2013-05-13 10:20:00,
2013-05-13 06:25:00,48.3,45.2,30.22,NNW,335,0.0,0.0,89,0.00,,---,0.00,VWS V14.00,2013-05-13 10:25:00,
2013-05-13 06:30:00,47.9,44.8,30.22,NNW,335,0.0,0.0,89,0.00,,---,0.00,VWS V14.00,2013-05-13 10:30:00,
2013-05-13 06:35:00,47.7,44.7,30.22,NNW,335,0.0,0.0,89,0.00,,---,0.00,VWS V14.00,2013-05-13 10:35:00,
2013-05-13 06:40:00,47.6,44.8,30.22,NNW,335,0.0,0.0,90,0.00,,---,0.00,VWS V14.00,2013-05-13 10:40:00,
2013-05-13 06:45:00,47.6,45.1,30.22,NNW,335,0.0,0.0,91,0.00,,---,0.00,VWS V14.00,2013-05-13 10:45:00,
2013-05-13 06:51:00,47.6,45.1,30.22,NNW,337,0.0,0.0,91,0.00,,---,0.00,VWS V14.00,2013-05-13 10:51:00,
2013-05-13 06:56:00,47.6,45.4,30.22,NNE,17,0.0,0.0,92,0.00,,---,0.00,VWS V14.00,2013-05-13 10:56:00,
2013-05-13 07:01:00,47.6,45.6,30.22,North,9,0.0,0.0,93,0.00,,---,0.00,VWS V14.00,2013-05-13 11:01:00,
2013-05-13 07:06:00,47.7,45.8,30.22,North,10,0.0,0.0,93,0.00,,---,0.00,VWS V14.00,2013-05-13 11:06:00,
2013-05-13 07:11:00,47.7,46.1,30.22,North,10,0.0,0.0,94,0.00,,---,0.00,VWS V14.00,2013-05-13 11:11:00,
2013-05-13 07:16:00,47.6,45.9,30.22,North,10,0.0,0.0,94,0.00,,---,0.00,VWS V14.00,2013-05-13 11:16:00,
2013-05-13 07:21:00,47.7,46.4,30.22,NNW,330,0.0,0.0,95,0.00,,---,0.00,VWS V14.00,2013-05-13 11:21:00,
2013-05-13 07:26:00,48.3,47.2,30.22,North,353,0.0,0.0,96,0.00,,---,0.00,VWS V14.00,2013-05-13 11:26:00,
2013-05-13 07:31:00,48.8,47.7,30.22,NNW,340,0.0,0.0,96,0.00,,---,0.00,VWS V14.00,2013-05-13 11:31:00,
2013-05-13 07:36:00,49.4,48.3,30.22,North,353,0.0,0.0,96,0.00,,---,0.00,VWS V14.00,2013-05-13 11:36:00,
2013-05-13 07:41:00,50.1,48.7,30.22,West,261,0.0,0.0,95,0.00,,---,0.00,VWS V14.00,2013-05-13 11:41:00,
2013-05-13 07:46:00,50.6,49.2,30.22,NW,317,0.0,0.0,95,0.00,,---,0.00,VWS V14.00,2013-05-13 11:46:00,
2013-05-13 07:51:00,51.3,49.4,30.22,WNW,303,0.0,0.0,93,0.00,,---,0.00,VWS V14.00,2013-05-13 11:51:00,
2013-05-13 07:56:00,52.1,49.8,30.22,WSW,257,0.0,0.0,92,0.00,,---,0.00,VWS V14.00,2013-05-13 11:56:00,
2013-05-13 08:01:00,52.6,50.0,30.22,NW,326,0.0,0.0,91,0.00,,---,0.00,VWS V14.00,2013-05-13 12:01:00,
2013-05-13 08:07:00,53.1,50.0,30.22,NNW,336,0.0,0.0,89,0.00,,---,0.00,VWS V14.00,2013-05-13 12:07:00,
2013-05-13 08:12:00,53.5,49.4,30.25,NNW,338,0.0,0.0,86,0.00,,---,0.00,VWS V14.00,2013-05-13 12:12:00,
2013-05-13 08:17:00,54.2,49.2,30.25,NNW,336,0.0,0.0,83,0.00,,---,0.00,VWS V14.00,2013-05-13 12:17:00,
2013-05-13 08:22:00,54.8,49.0,30.25,North,357,0.0,0.0,81,0.00,,---,0.00,VWS V14.00,2013-05-13 12:22:00,
2013-05-13 08:27:00,55.3,48.9,30.25,NNE,22,2.7,5.4,79,0.00,,---,0.00,VWS V14.00,2013-05-13 12:27:00,
2013-05-13 08:32:00,55.8,49.1,30.25,North,2,0.0,0.0,78,0.00,,---,0.00,VWS V14.00,2013-05-13 12:32:00,
2013-05-13 08:37:00,56.4,48.6,30.25,ENE,71,3.1,4.0,75,0.00,,---,0.00,VWS V14.00,2013-05-13 12:37:00,
2013-05-13 08:42:00,56.7,48.2,30.25,NNE,19,0.0,3.6,73,0.00,,---,0.00,VWS V14.00,2013-05-13 12:42:00,
2013-05-13 08:47:00,57.3,48.0,30.25,ENE,57,3.6,3.6,71,0.00,,---,0.00,VWS V14.00,2013-05-13 12:47:00,
2013-05-13 08:52:00,57.8,48.5,30.25,North,9,0.0,0.0,71,0.00,,---,0.00,VWS V14.00,2013-05-13 12:52:00,
2013-05-13 08:57:00,58.4,48.2,30.25,NNW,343,0.0,0.0,69,0.00,,---,0.00,VWS V14.00,2013-05-13 12:57:00,
2013-05-13 09:02:00,58.5,47.6,30.25,North,0,2.7,4.0,67,0.00,,---,0.00,VWS V14.00,2013-05-13 13:02:00,
2013-05-13 09:08:00,59.1,47.8,30.25,WNW,298,0.0,4.0,66,0.00,,---,0.00,VWS V14.00,2013-05-13 13:08:00,
2013-05-13 09:13:00,59.4,47.7,30.28,NW,312,0.0,0.0,65,0.00,,---,0.00,VWS V14.00,2013-05-13 13:13:00,
2013-05-13 09:18:00,60.0,47.4,30.28,WNW,297,0.0,0.0,63,0.00,,---,0.00,VWS V14.00,2013-05-13 13:18:00,
2013-05-13 09:23:00,60.7,47.2,30.28,NE,56,3.1,4.0,61,0.00,,---,0.00,VWS V14.00,2013-05-13 13:23:00,
2013-05-13 09:28:00,61.2,46.8,30.28,NNE,27,2.7,5.4,59,0.00,,---,0.00,VWS V14.00,2013-05-13 13:28:00,
2013-05-13 09:33:00,61.4,46.5,30.28,East,85,0.0,2.7,58,0.00,,---,0.00,VWS V14.00,2013-05-13 13:33:00,
2013-05-13 09:38:00,60.9,46.5,30.28,East,79,0.0,4.0,59,0.00,,---,0.00,VWS V14.00,2013-05-13 13:38:00,
2013-05-13 09:43:00,60.9,46.9,30.28,NE,50,4.0,4.0,60,0.00,,---,0.00,VWS V14.00,2013-05-13 13:43:00,
2013-05-13 09:48:00,61.2,46.4,30.28,NE,49,2.7,5.4,58,0.00,,---,0.00,VWS V14.00,2013-05-13 13:48:00,
2013-05-13 09:53:00,62.0,46.6,30.28,East,83,2.7,4.0,57,0.00,,---,0.00,VWS V14.00,2013-05-13 13:53:00,
2013-05-13 09:58:00,62.5,47.5,30.28,SSE,153,0.0,4.0,58,0.00,,---,0.00,VWS V14.00,2013-05-13 13:58:00,
2013-05-13 10:03:00,62.7,46.8,30.28,NE,47,3.6,4.9,56,0.00,,---,0.00,VWS V14.00,2013-05-13 14:03:00,
2013-05-13 10:08:00,62.7,46.8,30.28,North,11,3.1,4.9,56,0.00,,---,0.00,VWS V14.00,2013-05-13 14:08:00,
2013-05-13 10:14:00,63.0,46.2,30.28,ENE,59,3.1,4.9,54,0.00,,---,0.00,VWS V14.00,2013-05-13 14:14:00,
2013-05-13 10:19:00,63.8,46.8,30.28,NE,43,0.0,5.8,54,0.00,,---,0.00,VWS V14.00,2013-05-13 14:19:00,
2013-05-13 10:24:00,64.3,47.3,30.28,East,82,2.2,3.6,54,0.00,,---,0.00,VWS V14.00,2013-05-13 14:24:00,
2013-05-13 10:29:00,64.5,47.0,30.28,WSW,242,3.1,4.0,53,0.00,,---,0.00,VWS V14.00,2013-05-13 14:29:00,
2013-05-13 10:34:00,65.0,48.0,30.28,SW,220,3.1,4.0,54,0.00,,---,0.00,VWS V14.00,2013-05-13 14:34:00,
2013-05-13 10:39:00,65.7,48.7,30.28,SSW,195,5.8,5.8,54,0.00,,---,0.00,VWS V14.00,2013-05-13 14:39:00,
2013-05-13 10:44:00,66.5,49.3,30.25,South,191,2.7,5.8,54,0.00,,---,0.00,VWS V14.00,2013-05-13 14:44:00,
2013-05-13 10:49:00,66.6,50.0,30.25,ESE,111,4.0,6.3,55,0.00,,---,0.00,VWS V14.00,2013-05-13 14:49:00,
2013-05-13 10:54:00,66.6,49.0,30.25,ESE,116,3.6,5.8,53,0.00,,---,0.00,VWS V14.00,2013-05-13 14:54:00,
2013-05-13 10:59:00,67.0,48.8,30.28,SW,232,0.0,5.8,52,0.00,,---,0.00,VWS V14.00,2013-05-13 14:59:00,
2013-05-13 11:04:00,67.5,49.3,30.28,ESE,117,2.7,5.4,52,0.00,,---,0.00,VWS V14.00,2013-05-13 15:04:00,
2013-05-13 11:09:00,67.9,50.2,30.28,South,179,2.2,5.8,53,0.00,,---,0.00,VWS V14.00,2013-05-13 15:09:00,
2013-05-13 11:14:00,68.6,50.3,30.28,SSW,196,3.1,4.0,52,0.00,,---,0.00,VWS V14.00,2013-05-13 15:14:00,
2013-05-13 11:19:00,69.3,51.0,30.28,ESE,105,2.2,4.0,52,0.00,,---,0.00,VWS V14.00,2013-05-13 15:19:00,
2013-05-13 11:24:00,69.9,51.5,30.28,SSW,204,4.0,4.0,52,0.00,,---,0.00,VWS V14.00,2013-05-13 15:24:00,
2013-05-13 11:30:00,70.2,51.8,30.28,NNW,345,0.0,4.0,52,0.00,,---,0.00,VWS V14.00,2013-05-13 15:30:00,
2013-05-13 11:35:00,69.2,50.3,30.28,SSW,202,3.1,4.5,51,0.00,,---,0.00,VWS V14.00,2013-05-13 15:35:00,
2013-05-13 11:40:00,69.0,50.1,30.28,SSW,206,3.1,6.3,51,0.00,,---,0.00,VWS V14.00,2013-05-13 15:40:00,
2013-05-13 11:45:00,69.3,49.9,30.28,SSE,155,5.4,7.6,50,0.00,,---,0.00,VWS V14.00,2013-05-13 15:45:00,
2013-05-13 11:50:00,70.1,50.6,30.28,SE,125,2.2,2.2,50,0.00,,---,0.00,VWS V14.00,2013-05-13 15:50:00,
2013-05-13 11:55:00,70.8,51.2,30.28,SSE,161,4.9,6.3,50,0.00,,---,0.00,VWS V14.00,2013-05-13 15:55:00,
2013-05-13 12:00:00,71.0,51.4,30.28,NE,46,0.0,0.0,50,0.00,,---,0.00,VWS V14.00,2013-05-13 16:00:00,
2013-05-13 12:05:00,70.8,51.2,30.28,ESE,113,3.6,6.3,50,0.00,,---,0.00,VWS V14.00,2013-05-13 16:05:00,
2013-05-13 12:10:00,70.2,51.3,30.28,SSE,151,3.6,4.0,51,0.00,,---,0.00,VWS V14.00,2013-05-13 16:10:00,
2013-05-13 12:15:00,69.9,50.4,30.28,ENE,77,0.0,5.8,50,0.00,,---,0.00,VWS V14.00,2013-05-13 16:15:00,
2013-05-13 12:20:00,70.6,50.5,30.28,South,178,3.6,3.6,49,0.00,,---,0.00,VWS V14.00,2013-05-13 16:20:00,
2013-05-13 12:25:00,71.1,51.0,30.28,ENE,62,3.1,5.4,49,0.00,,---,0.00,VWS V14.00,2013-05-13 16:25:00,
2013-05-13 12:30:00,71.3,52.3,30.25,East,80,0.0,2.2,51,0.00,,---,0.00,VWS V14.00,2013-05-13 16:30:00,
2013-05-13 12:35:00,71.5,51.9,30.25,NE,53,3.1,4.0,50,0.00,,---,0.00,VWS V14.00,2013-05-13 16:35:00,
2013-05-13 12:40:00,71.7,52.6,30.25,SSW,201,3.6,4.0,51,0.00,,---,0.00,VWS V14.00,2013-05-13 16:40:00,
2013-05-13 12:45:00,71.9,53.3,30.25,SSE,150,0.0,4.0,52,0.00,,---,0.00,VWS V14.00,2013-05-13 16:45:00,
2013-05-13 12:51:00,72.6,53.4,30.25,SW,218,5.4,5.4,51,0.00,,---,0.00,VWS V14.00,2013-05-13 16:51:00,
2013-05-13 12:56:00,73.3,53.6,30.25,ESE,115,3.1,5.8,50,0.00,,---,0.00,VWS V14.00,2013-05-13 16:56:00,
2013-05-13 13:01:00,73.7,52.2,30.25,South,190,3.6,6.3,47,0.00,,---,0.00,VWS V14.00,2013-05-13 17:01:00,
2013-05-13 13:06:00,73.7,50.4,30.25,SW,224,3.6,6.3,44,0.00,,---,0.00,VWS V14.00,2013-05-13 17:06:00,
2013-05-13 13:11:00,73.5,51.5,30.25,SE,130,4.0,4.0,46,0.00,,---,0.00,VWS V14.00,2013-05-13 17:11:00,
2013-05-13 13:16:00,74.2,50.9,30.25,SW,230,4.9,6.7,44,0.00,,---,0.00,VWS V14.00,2013-05-13 17:16:00,
2013-05-13 13:21:00,74.7,51.4,30.25,SE,144,3.1,4.0,44,0.00,,---,0.00,VWS V14.00,2013-05-13 17:21:00,
2013-05-13 13:26:00,74.9,51.6,30.25,WSW,239,7.6,7.6,44,0.00,,---,0.00,VWS V14.00,2013-05-13 17:26:00,
2013-05-13 13:31:00,75.1,51.1,30.25,WSW,242,4.9,4.9,43,0.00,,---,0.00,VWS V14.00,2013-05-13 17:31:00,
2013-05-13 13:36:00,75.3,51.9,30.25,ESE,106,0.0,5.8,44,0.00,,---,0.00,VWS V14.00,2013-05-13 17:36:00,
2013-05-13 13:41:00,75.6,52.2,30.22,SW,221,3.6,7.6,44,0.00,,---,0.00,VWS V14.00,2013-05-13 17:41:00,
2013-05-13 13:46:00,76.0,51.9,30.22,South,170,2.7,7.6,43,0.00,,---,0.00,VWS V14.00,2013-05-13 17:46:00,
2013-05-13 13:51:00,76.5,53.0,30.22,SSW,205,3.1,5.4,44,0.00,,---,0.00,VWS V14.00,2013-05-13 17:51:00,
2013-05-13 13:56:00,76.9,52.7,30.22,South,178,0.0,5.8,43,0.00,,---,0.00,VWS V14.00,2013-05-13 17:56:00,
2013-05-13 14:01:00,77.1,52.9,30.22,SW,229,6.3,6.3,43,0.00,,---,0.00,VWS V14.00,2013-05-13 18:01:00,
2013-05-13 14:06:00,77.3,53.0,30.22,SE,131,3.1,6.3,43,0.00,,---,0.00,VWS V14.00,2013-05-13 18:06:00,
2013-05-13 14:12:00,77.3,53.0,30.22,SSE,165,8.7,8.7,43,0.00,,---,0.00,VWS V14.00,2013-05-13 18:12:00,
2013-05-13 14:17:00,77.3,53.0,30.22,SSW,199,5.8,8.7,43,0.00,,---,0.00,VWS V14.00,2013-05-13 18:17:00,
2013-05-13 14:22:00,77.4,53.2,30.22,SSE,157,6.7,6.7,43,0.00,,---,0.00,VWS V14.00,2013-05-13 18:22:00,
2013-05-13 14:27:00,77.6,52.7,30.22,SW,225,5.4,6.7,42,0.00,,---,0.00,VWS V14.00,2013-05-13 18:27:00,
2013-05-13 14:32:00,77.6,53.4,30.22,SE,143,2.7,6.3,43,0.00,,---,0.00,VWS V14.00,2013-05-13 18:32:00,
2013-05-13 14:37:00,78.2,52.6,30.22,South,179,6.3,8.1,41,0.00,,---,0.00,VWS V14.00,2013-05-13 18:37:00,
2013-05-13 14:42:00,78.3,52.7,30.22,South,176,5.4,8.7,41,0.00,,---,0.00,VWS V14.00,2013-05-13 18:42:00,
2013-05-13 14:47:00,78.2,52.6,30.22,SSE,160,4.9,8.7,41,0.00,,---,0.00,VWS V14.00,2013-05-13 18:47:00,
2013-05-13 14:52:00,78.3,52.7,30.22,SW,231,8.1,8.1,41,0.00,,---,0.00,VWS V14.00,2013-05-13 18:52:00,
2013-05-13 14:57:00,78.7,53.0,30.19,South,171,7.6,12.8,41,0.00,,---,0.00,VWS V14.00,2013-05-13 18:57:00,
2013-05-13 15:02:00,79.1,53.4,30.19,South,191,5.8,5.8,41,0.00,,---,0.00,VWS V14.00,2013-05-13 19:02:00,
2013-05-13 15:07:00,79.6,53.2,30.19,South,187,10.5,10.5,40,0.00,,---,0.00,VWS V14.00,2013-05-13 19:07:00,
2013-05-13 15:12:00,79.6,53.2,30.19,South,178,8.1,8.7,40,0.00,,---,0.00,VWS V14.00,2013-05-13 19:12:00,
2013-05-13 15:17:00,79.4,53.0,30.19,SE,143,4.0,11.0,40,0.00,,---,0.00,VWS V14.00,2013-05-13 19:17:00,
2013-05-13 15:22:00,79.2,52.9,30.19,SE,143,10.1,12.8,40,0.00,,---,0.00,VWS V14.00,2013-05-13 19:22:00,
2013-05-13 15:28:00,79.2,52.9,30.19,SE,143,11.0,15.4,40,0.00,,---,0.00,VWS V14.00,2013-05-13 19:28:00,
2013-05-13 15:33:00,79.4,53.0,30.19,SW,231,7.6,8.1,40,0.00,,---,0.00,VWS V14.00,2013-05-13 19:33:00,
2013-05-13 15:38:00,79.8,53.3,30.19,SSW,194,8.7,10.1,40,0.00,,---,0.00,VWS V14.00,2013-05-13 19:38:00,
2013-05-13 15:43:00,80.0,53.5,30.19,WSW,238,7.6,12.8,40,0.00,,---,0.00,VWS V14.00,2013-05-13 19:43:00,
2013-05-13 15:48:00,79.8,53.3,30.19,SW,220,6.3,12.8,40,0.00,,---,0.00,VWS V14.00,2013-05-13 19:48:00,
2013-05-13 15:53:00,80.1,53.7,30.19,SSW,196,8.1,11.0,40,0.00,,---,0.00,VWS V14.00,2013-05-13 19:53:00,
2013-05-13 15:58:00,80.7,54.1,30.16,South,189,8.1,14.5,40,0.00,,---,0.00,VWS V14.00,2013-05-13 19:58:00,
2013-05-13 16:03:00,80.7,54.1,30.16,SSW,202,8.1,10.5,40,0.00,,---,0.00,VWS V14.00,2013-05-13 20:03:00,
2013-05-13 16:08:00,80.7,54.1,30.16,SSE,147,8.1,11.0,40,0.00,,---,0.00,VWS V14.00,2013-05-13 20:08:00,
2013-05-13 16:13:00,80.7,54.1,30.16,SSW,206,6.7,13.2,40,0.00,,---,0.00,VWS V14.00,2013-05-13 20:13:00,
2013-05-13 16:18:00,80.7,54.1,30.16,SSE,156,5.4,13.2,40,0.00,,---,0.00,VWS V14.00,2013-05-13 20:18:00,
2013-05-13 16:23:00,80.9,54.3,30.16,SE,143,8.3,8.7,40,0.00,,---,0.00,VWS V14.00,2013-05-13 20:23:00,
2013-05-13 16:28:00,81.0,54.5,30.16,SSW,201,5.8,11.4,40,0.00,,---,0.00,VWS V14.00,2013-05-13 20:28:00,
2013-05-13 16:33:00,81.2,53.9,30.16,SW,222,5.8,10.5,39,0.00,,---,0.00,VWS V14.00,2013-05-13 20:33:00,
2013-05-13 16:38:00,81.4,51.9,30.16,SW,226,4.9,11.0,36,0.00,,---,0.00,VWS V14.00,2013-05-13 20:38:00,
2013-05-13 16:44:00,81.0,52.3,30.13,SW,225,8.7,11.0,37,0.00,,---,0.00,VWS V14.00,2013-05-13 20:44:00,
2013-05-13 16:49:00,81.2,52.5,30.13,SSW,195,7.6,11.0,37,0.00,,---,0.00,VWS V14.00,2013-05-13 20:49:00,
2013-05-13 16:54:00,81.6,52.1,30.13,SSW,211,8.3,10.5,36,0.00,,---,0.00,VWS V14.00,2013-05-13 20:54:00,
2013-05-13 16:59:00,81.4,54.1,30.16,South,187,8.3,13.2,39,0.00,,---,0.00,VWS V14.00,2013-05-13 20:59:00,
2013-05-13 17:04:00,81.4,54.1,30.16,South,183,11.0,11.0,39,0.00,,---,0.00,VWS V14.00,2013-05-13 21:04:00,
2013-05-13 17:09:00,81.6,52.1,30.16,SSW,197,11.0,11.0,36,0.00,,---,0.00,VWS V14.00,2013-05-13 21:09:00,
2013-05-13 17:14:00,81.4,51.9,30.13,SW,216,4.0,14.1,36,0.00,,---,0.00,VWS V14.00,2013-05-13 21:14:00,
2013-05-13 17:19:00,81.2,52.5,30.13,South,183,5.4,14.1,37,0.00,,---,0.00,VWS V14.00,2013-05-13 21:19:00,
2013-05-13 17:24:00,81.2,52.5,30.13,SW,225,10.5,13.2,37,0.00,,---,0.00,VWS V14.00,2013-05-13 21:24:00,
2013-05-13 17:29:00,81.2,52.5,30.13,South,178,7.6,14.1,37,0.00,,---,0.00,VWS V14.00,2013-05-13 21:29:00,
2013-05-13 17:34:00,81.4,51.9,30.13,SSE,148,8.3,9.6,36,0.00,,---,0.00,VWS V14.00,2013-05-13 21:34:00,
2013-05-13 17:39:00,81.6,54.2,30.13,SW,216,5.4,13.2,39,0.00,,---,0.00,VWS V14.00,2013-05-13 21:39:00,
2013-05-13 17:44:00,81.9,52.4,30.13,SSE,168,11.0,11.0,36,0.00,,---,0.00,VWS V14.00,2013-05-13 21:44:00,
2013-05-13 17:49:00,82.1,52.5,30.13,WSW,241,8.1,12.3,36,0.00,,---,0.00,VWS V14.00,2013-05-13 21:49:00,
2013-05-13 17:54:00,81.8,52.2,30.13,SW,214,5.4,10.5,36,0.00,,---,0.00,VWS V14.00,2013-05-13 21:54:00,
2013-05-13 17:59:00,81.4,51.9,30.13,SSW,210,5.8,12.8,36,0.00,,---,0.00,VWS V14.00,2013-05-13 21:59:00,
2013-05-13 18:05:00,81.4,51.9,30.13,SSE,149,7.6,10.1,36,0.00,,---,0.00,VWS V14.00,2013-05-13 22:05:00,
2013-05-13 18:10:00,81.4,51.9,30.13,SW,223,5.4,12.8,36,0.00,,---,0.00,VWS V14.00,2013-05-13 22:10:00,
2013-05-13 18:15:00,81.6,52.1,30.13,SW,214,8.1,11.4,36,0.00,,---,0.00,VWS V14.00,2013-05-13 22:15:00,
2013-05-13 18:20:00,81.6,52.1,30.13,SW,217,8.3,8.3,36,0.00,,---,0.00,VWS V14.00,2013-05-13 22:20:00,
2013-05-13 18:25:00,81.8,52.2,30.13,SE,144,5.4,11.0,36,0.00,,---,0.00,VWS V14.00,2013-05-13 22:25:00,
2013-05-13 18:30:00,81.6,52.1,30.13,SSW,207,6.3,6.3,36,0.00,,---,0.00,VWS V14.00,2013-05-13 22:30:00,
2013-05-13 18:35:00,81.6,52.1,30.13,SSE,167,6.3,10.1,36,0.00,,---,0.00,VWS V14.00,2013-05-13 22:35:00,
2013-05-13 18:40:00,81.6,52.1,30.13,South,189,7.6,10.1,36,0.00,,---,0.00,VWS V14.00,2013-05-13 22:40:00,
2013-05-13 18:45:00,81.6,52.1,30.13,South,186,11.0,11.0,36,0.00,,---,0.00,VWS V14.00,2013-05-13 22:45:00,
2013-05-13 18:50:00,81.2,52.5,30.13,SSW,200,6.7,6.7,37,0.00,,---,0.00,VWS V14.00,2013-05-13 22:50:00,
2013-05-13 18:55:00,81.2,53.9,30.13,SSE,158,6.3,8.7,39,0.00,,---,0.00,VWS V14.00,2013-05-13 22:55:00,
2013-05-13 19:00:00,80.9,53.6,30.13,South,184,8.3,8.7,39,0.00,,---,0.00,VWS V14.00,2013-05-13 23:00:00,
2013-05-13 19:05:00,80.5,53.3,30.13,WSW,252,8.1,10.1,39,0.00,,---,0.00,VWS V14.00,2013-05-13 23:05:00,
2013-05-13 19:10:00,80.1,53.0,30.10,SW,235,3.1,5.4,39,0.00,,---,0.00,VWS V14.00,2013-05-13 23:10:00,
2013-05-13 19:15:00,79.6,52.5,30.10,SSW,200,8.3,8.3,39,0.00,,---,0.00,VWS V14.00,2013-05-13 23:15:00,
2013-05-13 19:21:00,78.9,52.5,30.10,SW,228,5.4,5.4,40,0.00,,---,0.00,VWS V14.00,2013-05-13 23:21:00,
2013-05-13 19:26:00,78.5,52.2,30.10,South,190,3.1,6.3,40,0.00,,---,0.00,VWS V14.00,2013-05-13 23:26:00,
2013-05-13 19:31:00,78.2,51.9,30.10,South,185,8.3,8.7,40,0.00,,---,0.00,VWS V14.00,2013-05-13 23:31:00,
2013-05-13 19:36:00,77.8,51.6,30.10,SSE,157,7.6,8.7,40,0.00,,---,0.00,VWS V14.00,2013-05-13 23:36:00,
2013-05-13 19:41:00,77.6,51.4,30.13,South,190,5.4,7.6,40,0.00,,---,0.00,VWS V14.00,2013-05-13 23:41:00,
2013-05-13 19:46:00,77.3,51.8,30.13,SW,214,4.0,10.5,41,0.00,,---,0.00,VWS V14.00,2013-05-13 23:46:00,
2013-05-13 19:51:00,77.1,51.6,30.13,SW,225,4.9,5.8,41,0.00,,---,0.00,VWS V14.00,2013-05-13 23:51:00,
2013-05-13 19:56:00,76.9,51.4,30.10,SSW,204,5.4,7.6,41,0.00,,---,0.00,VWS V14.00,2013-05-13 23:56:00,
2013-05-13 20:01:00,76.7,51.3,30.10,SSW,205,5.4,5.4,41,0.00,,---,0.00,VWS V14.00,2013-05-14 00:01:00,
2013-05-13 20:06:00,76.5,51.1,30.10,South,191,5.4,6.3,41,0.00,,---,0.00,VWS V14.00,2013-05-14 00:06:00,
2013-05-13 20:11:00,76.4,51.0,30.13,SSW,208,4.9,6.3,41,0.00,,---,0.00,VWS V14.00,2013-05-14 00:11:00,
2013-05-13 20:16:00,76.0,50.6,30.13,South,169,5.4,6.3,41,0.00,,---,0.00,VWS V14.00,2013-05-14 00:16:00,
2013-05-13 20:21:00,75.8,51.1,30.13,SSW,211,3.6,5.8,42,0.00,,---,0.00,VWS V14.00,2013-05-14 00:21:00,
2013-05-13 20:26:00,75.5,50.8,30.13,SSW,193,3.1,7.6,42,0.00,,---,0.00,VWS V14.00,2013-05-14 00:26:00,
2013-05-13 20:31:00,75.1,50.5,30.13,South,191,3.1,4.0,42,0.00,,---,0.00,VWS V14.00,2013-05-14 00:31:00,
2013-05-13 20:37:00,74.7,50.8,30.13,SW,221,3.1,5.8,43,0.00,,---,0.00,VWS V14.00,2013-05-14 00:37:00,
2013-05-13 20:42:00,74.4,50.5,30.13,SSW,195,3.1,5.8,43,0.00,,---,0.00,VWS V14.00,2013-05-14 00:42:00,
2013-05-13 20:47:00,73.8,50.6,30.13,SSW,208,4.5,5.8,44,0.00,,---,0.00,VWS V14.00,2013-05-14 00:47:00,
2013-05-13 20:52:00,73.5,50.3,30.13,SSE,168,4.0,4.0,44,0.00,,---,0.00,VWS V14.00,2013-05-14 00:52:00,
2013-05-13 20:57:00,73.1,50.5,30.13,South,188,5.4,5.8,45,0.00,,---,0.00,VWS V14.00,2013-05-14 00:57:00,
2013-05-13 21:02:00,72.8,50.2,30.13,SSW,204,5.4,5.4,45,0.00,,---,0.00,VWS V14.00,2013-05-14 01:02:00,
2013-05-13 21:07:00,72.4,50.5,30.13,South,185,5.8,5.8,46,0.00,,---,0.00,VWS V14.00,2013-05-14 01:07:00,
2013-05-13 21:12:00,72.0,50.7,30.13,SSW,209,5.8,5.8,47,0.00,,---,0.00,VWS V14.00,2013-05-14 01:12:00,
2013-05-13 21:17:00,71.7,51.0,30.13,South,187,3.6,5.8,48,0.00,,---,0.00,VWS V14.00,2013-05-14 01:17:00,
2013-05-13 21:22:00,71.3,51.2,30.13,SSW,193,3.1,3.6,49,0.00,,---,0.00,VWS V14.00,2013-05-14 01:22:00,
2013-05-13 21:28:00,71.0,51.4,30.13,South,182,4.9,4.9,50,0.00,,---,0.00,VWS V14.00,2013-05-14 01:28:00,
2013-05-13 21:33:00,70.6,51.6,30.13,SSW,192,4.0,5.8,51,0.00,,---,0.00,VWS V14.00,2013-05-14 01:33:00,
2013-05-13 21:38:00,70.4,52.0,30.13,SSW,202,4.0,5.8,52,0.00,,---,0.00,VWS V14.00,2013-05-14 01:38:00,
2013-05-13 21:43:00,70.1,51.6,30.13,SSW,206,3.1,6.3,52,0.00,,---,0.00,VWS V14.00,2013-05-14 01:43:00,
2013-05-13 21:48:00,69.9,51.5,30.13,SSW,203,4.0,6.3,52,0.00,,---,0.00,VWS V14.00,2013-05-14 01:48:00,
2013-05-13 21:53:00,69.7,51.3,30.13,South,185,3.6,5.4,52,0.00,,---,0.00,VWS V14.00,2013-05-14 01:53:00,
2013-05-13 21:58:00,69.5,51.7,30.13,South,186,3.1,5.4,53,0.00,,---,0.00,VWS V14.00,2013-05-14 01:58:00,
2013-05-13 22:03:00,69.2,51.3,30.13,SSW,199,5.4,5.4,53,0.00,,---,0.00,VWS V14.00,2013-05-14 02:03:00,
2013-05-13 22:08:00,69.0,51.2,30.13,South,188,3.1,5.4,53,0.00,,---,0.00,VWS V14.00,2013-05-14 02:08:00,
2013-05-13 22:13:00,68.8,51.0,30.13,SSW,194,4.5,5.8,53,0.00,,---,0.00,VWS V14.00,2013-05-14 02:13:00,
2013-05-13 22:18:00,68.4,51.2,30.13,South,181,4.9,5.8,54,0.00,,---,0.00,VWS V14.00,2013-05-14 02:18:00,
2013-05-13 22:23:00,68.3,51.0,30.13,SSW,194,4.9,4.9,54,0.00,,---,0.00,VWS V14.00,2013-05-14 02:23:00,
2013-05-13 22:28:00,67.9,51.2,30.13,South,187,4.9,4.9,55,0.00,,---,0.00,VWS V14.00,2013-05-14 02:28:00,
2013-05-13 22:34:00,67.7,51.0,30.13,South,181,2.2,4.0,55,0.00,,---,0.00,VWS V14.00,2013-05-14 02:34:00,
2013-05-13 22:39:00,67.4,50.7,30.13,SSW,203,3.6,4.0,55,0.00,,---,0.00,VWS V14.00,2013-05-14 02:39:00,
2013-05-13 22:44:00,67.2,51.0,30.13,South,186,4.0,5.4,56,0.00,,---,0.00,VWS V14.00,2013-05-14 02:44:00,
2013-05-13 22:49:00,67.0,50.8,30.13,South,175,4.0,5.8,56,0.00,,---,0.00,VWS V14.00,2013-05-14 02:49:00,
2013-05-13 22:54:00,66.8,51.1,30.13,SSW,206,3.6,4.0,57,0.00,,---,0.00,VWS V14.00,2013-05-14 02:54:00,
2013-05-13 22:59:00,66.6,51.0,30.13,SSW,195,2.7,4.0,57,0.00,,---,0.00,VWS V14.00,2013-05-14 02:59:00,
2013-05-13 23:04:00,66.3,51.1,30.13,South,176,4.5,5.4,58,0.00,,---,0.00,VWS V14.00,2013-05-14 03:04:00,
2013-05-13 23:09:00,66.3,51.1,30.13,SSW,194,3.6,5.4,58,0.00,,---,0.00,VWS V14.00,2013-05-14 03:09:00,
2013-05-13 23:14:00,66.3,51.1,30.13,SSW,199,2.2,4.0,58,0.00,,---,0.00,VWS V14.00,2013-05-14 03:14:00,
2013-05-13 23:19:00,66.3,51.1,30.13,South,184,3.6,4.0,58,0.00,,---,0.00,VWS V14.00,2013-05-14 03:19:00,
2013-05-13 23:24:00,66.1,50.9,30.13,SSW,213,3.1,5.8,58,0.00,,---,0.00,VWS V14.00,2013-05-14 03:24:00,
2013-05-13 23:29:00,66.1,50.9,30.13,SSW,212,3.6,5.8,58,0.00,,---,0.00,VWS V14.00,2013-05-14 03:29:00,
2013-05-13 23:34:00,65.9,50.7,30.13,South,184,4.9,5.4,58,0.00,,---,0.00,VWS V14.00,2013-05-14 03:34:00,
2013-05-13 23:39:00,65.9,50.7,30.13,SSW,208,3.6,6.3,58,0.00,,---,0.00,VWS V14.00,2013-05-14 03:39:00,
2013-05-13 23:45:00,65.7,51.0,30.13,SSW,209,2.7,4.0,59,0.00,,---,0.00,VWS V14.00,2013-05-14 03:45:00,
2013-05-13 23:50:00,65.7,51.0,30.13,SW,236,4.9,5.8,59,0.00,,---,0.00,VWS V14.00,2013-05-14 03:50:00,
2013-05-13 23:55:00,65.6,50.9,30.13,SSW,201,3.6,5.4,59,0.00,,---,0.00,VWS V14.00,2013-05-14 03:55:00,